Location: River House Observatory
(37.8577°N, 76.3548°W)
Time: 19:44:40
(UTC-05:00)

NOSS 3-1 (C) - Visible Passes

Search period start: 21 December 2014 00:00
Search period end: 31 December 2014 00:00
Orbit: 888 x 1321 km, 63.4° (Epoch: 16 December)

Date Brightness Start Highest point End Pass type
(mag) Time Alt. Az. Time Alt. Az. Time Alt. Az.
21 Dec 6.1 18:20:53 10° NW 18:27:17 29° WSW 18:33:58 10° SSW visible
22 Dec 6.5 06:22:52 10° SE 06:26:35 17° ESE 06:30:28 10° ENE visible
22 Dec 5.3 17:35:03 10° NW 17:42:17 46° WSW 17:49:55 10° S visible
23 Dec 7.2 18:44:09 10° W 18:47:05 12° WSW 18:50:03 10° SW visible
24 Dec 5.0 06:40:49 10° S 06:46:21 42° ESE 06:52:19 10° NE visible
24 Dec 6.7 17:56:38 10° WNW 18:02:16 22° WSW 18:08:06 10° SSW visible
25 Dec 5.9 05:56:51 10° SSE 06:01:29 24° ESE 06:06:22 10° ENE visible
25 Dec 6.0 17:10:28 10° NW 17:17:19 36° WSW 17:24:31 10° S visible
26 Dec 6.6 05:14:16 10° SE 05:16:45 13° ESE 05:19:17 10° E visible
27 Dec 4.2 06:15:34 10° SSW 06:21:22 57° ESE 06:27:40 10° NE visible
27 Dec 7.0 17:32:43 10° WNW 17:37:12 16° WSW 17:41:48 10° SW visible
28 Dec 5.2 05:31:12 10° S 05:36:25 33° ESE 05:41:59 10° NE visible
29 Dec 6.0 04:47:41 10° SSE 04:51:37 18° ESE 04:55:42 10° ENE visible
29 Dec 3.5 06:35:42 10° SW 06:41:39 66° NW 06:48:11 10° NNE visible
30 Dec 3.6 05:50:30 10° SSW 05:56:26 77° ESE 06:02:56 10° NE visible
